Location: eljas
(40.1958°N, 6.8661°W)
Time: 03:54:23
(UTC+01:00)

ISS - All Passes

Search period start: 06 December 2016 00:00
Search period end: 16 December 2016 00:00
Orbit: 401 x 410 km, 51.6° (Epoch: 06 December)

Date Brightness Start Highest point End Pass type
(mag) Time Alt. Az. Time Alt. Az. Time Alt. Az.
06 Dec - 01:27:39 10° W 01:30:07 20° SW 01:32:34 10° S night (unlit)
06 Dec - 16:31:11 10° S 16:33:27 18° SE 16:35:45 10° E daylight
06 Dec - 18:06:30 10° WSW 18:09:41 49° NNW 18:12:55 10° NE daylight
06 Dec - 19:44:53 10° NW 19:46:49 14° NNW 19:48:45 10° NNE visible
06 Dec - 21:22:59 10° NNW 21:24:25 12° N 21:25:51 10° NNE night (unlit)
06 Dec - 22:58:50 10° NW 23:01:46 28° NNE 23:04:41 10° E night (unlit)
07 Dec - 00:35:13 10° WNW 00:38:19 37° SW 00:41:24 10° SSE night (unlit)
07 Dec - 17:14:26 10° SW 17:17:43 89° SE 17:21:01 10° NE daylight
07 Dec - 18:52:11 10° WNW 18:54:35 18° NNW 18:57:00 10° NNE visible
07 Dec - 20:30:55 10° NNW 20:32:07 11° N 20:33:19 10° NNE visible
07 Dec - 22:07:05 10° NNW 22:09:37 20° NNE 22:12:09 10° ENE night (unlit)
07 Dec - 23:43:07 10° NW 23:46:26 76° SW 23:49:43 10° SE night (unlit)
08 Dec - 16:22:40 10° SSW 16:25:48 44° SE 16:28:57 10° ENE daylight
08 Dec - 17:59:36 10° W 18:02:25 25° NNW 18:05:14 10° NNE daylight
08 Dec - 19:38:28 10° NNW 19:39:48 12° N 19:41:08 10° NNE visible
08 Dec - 21:15:20 10° NNW 21:17:23 15° NNE 21:19:27 10° NE night (unlit)
08 Dec - 22:51:11 10° NW 22:54:27 57° NE 22:57:42 10° ESE night (unlit)
09 Dec - 00:28:36 10° W 00:30:37 15° SW 00:32:38 10° SSW night (unlit)
09 Dec - 15:31:20 10° S 15:33:57 22° SE 15:36:36 10° E daylight
09 Dec - 17:07:11 10° WSW 17:10:18 39° NNW 17:13:26 10° NE daylight
09 Dec - 18:45:45 10° NW 18:47:30 13° NNW 18:49:14 10° NNE visible
09 Dec - 20:23:31 10° NNW 20:25:06 13° N 20:26:41 10° NE visible
09 Dec - 21:59:20 10° NW 22:02:23 33° NNE 22:05:25 10° E night (unlit)
09 Dec - 23:35:54 10° WNW 23:38:50 29° SW 23:41:43 10° SSE night (unlit)
10 Dec - 14:40:54 10° SSE 14:42:10 12° SE 14:43:27 10° ESE daylight
10 Dec - 16:14:58 10° WSW 16:18:14 72° NW 16:21:33 10° NE daylight
10 Dec - 17:53:00 10° WNW 17:55:13 17° NNW 17:57:26 10° NNE daylight
10 Dec - 19:31:32 10° NNW 19:32:46 12° N 19:34:01 10° NNE visible
10 Dec - 21:07:32 10° NNW 21:10:13 22° NNE 21:12:54 10° ENE visible
10 Dec - 22:43:40 10° WNW 22:46:56 57° SW 22:50:10 10° SE night (unlit)
11 Dec - 15:23:02 10° SW 15:26:15 58° SE 15:29:30 10° ENE daylight
11 Dec - 17:00:19 10° WNW 17:02:58 22° NNW 17:05:39 10° NNE daylight
11 Dec - 18:39:12 10° NNW 18:40:25 12° N 18:41:39 10° NNE visible
11 Dec - 20:15:44 10° NNW 20:17:59 17° NNE 20:20:13 10° ENE visible
11 Dec - 21:51:38 10° NW 21:54:57 72° NE 21:58:14 10° ESE night (unlit)
11 Dec - 23:29:42 10° WSW 23:31:01 12° SW 23:32:19 10° SSW night (unlit)
12 Dec - 14:31:29 10° SSW 14:34:20 29° SE 14:37:15 10° ENE daylight
12 Dec - 16:07:47 10° W 16:10:47 33° NNW 16:13:49 10° NE daylight
12 Dec - 17:46:31 10° NW 17:48:04 13° N 17:49:37 10° NNE daylight
12 Dec - 19:23:55 10° NNW 19:25:41 13° NNE 19:27:25 10° NE visible
12 Dec - 20:59:43 10° NW 21:02:52 40° NNE 21:06:00 10° ESE visible
12 Dec - 22:36:33 10° W 22:39:12 22° SW 22:41:51 10° S night (unlit)
13 Dec - 13:40:31 10° SSE 13:42:30 15° SE 13:44:30 10° E daylight
13 Dec - 15:15:27 10° WSW 15:18:40 56° NW 15:21:56 10° NE daylight
13 Dec - 16:53:42 10° NW 16:55:44 15° NNW 16:57:46 10° NNE daylight
13 Dec - 18:31:59 10° NNW 18:33:19 12° N 18:34:38 10° NNE visible
13 Dec - 20:07:51 10° NNW 20:10:42 26° NNE 20:13:32 10° E visible
13 Dec - 21:44:08 10° WNW 21:47:18 44° SW 21:50:27 10° SSE night (unlit)
14 Dec - 14:23:22 10° SW 14:26:37 76° SE 14:29:54 10° NE daylight
14 Dec - 16:00:56 10° WNW 16:03:26 20° NNW 16:05:55 10° NNE daylight
14 Dec - 17:39:45 10° NNW 17:40:55 11° N 17:42:05 10° NNE daylight
14 Dec - 19:16:02 10° NNW 19:18:27 18° NNE 19:20:51 10° ENE visible
14 Dec - 20:52:00 10° NW 20:55:19 88° SW 20:58:36 10° SE visible
15 Dec - 13:31:36 10° SSW 13:34:39 37° SE 13:37:42 10° ENE daylight
15 Dec - 15:08:18 10° W 15:11:11 28° NNW 15:14:05 10° NE daylight
15 Dec - 16:47:08 10° NNW 16:48:32 12° N 16:49:55 10° NNE daylight
15 Dec - 18:24:12 10° NNW 18:26:07 14° NNE 18:28:03 10° NE daylight
15 Dec - 20:00:00 10° NW 20:03:13 49° NNE 20:06:27 10° ESE visible
15 Dec - 21:37:09 10° W 21:39:28 18° SW 21:41:46 10° S night (unlit)
